This is the latest recevied weather packets stored in our database for station/object ZS2JO. If no packets are shown the sender has not sent any weather packets the latest 10 day(s).
| Time | Temp. | Humidity | Pressure | Rain* | Wind** | Luminosity | Snow |
|---|---|---|---|---|---|---|---|
| 1778245699 | 16.67° C | 77% | 1020.3 hPa | 0 mm | - | 198 W/m² | - |
| 1778245396 | 16.67° C | 75% | 1020.2 hPa | 0 mm | - | 457 W/m² | - |
| 1778245092 | 17.22° C | 76% | 1020.2 hPa | 0 mm | - | 527 W/m² | - |
| 1778244788 | 16.67° C | 78% | 1020.1 hPa | 0 mm | - | 487 W/m² | - |
| 1778244486 | 16.11° C | 78% | 1020.3 hPa | 0 mm | - | 345 W/m² | - |
| 1778244183 | 16.67° C | 77% | 1020.1 hPa | 0 mm | - | 266 W/m² | - |
| 1778243881 | 16.67° C | 79% | 1020.3 hPa | 0 mm | - | 320 W/m² | - |
| 1778243579 | 16.11° C | 80% | 1020.2 hPa | 0 mm | - | 450 W/m² | - |
| 1778243275 | 16.11° C | 81% | 1020.3 hPa | 0 mm | - | 526 W/m² | - |
| 1778242972 | 15.56° C | 84% | 1020.3 hPa | 0 mm | - | 312 W/m² | - |
| 1778242669 | 15.56° C | 87% | 1020.4 hPa | 0 mm | - | 233 W/m² | - |
| 1778242368 | 15.56° C | 83% | 1020.4 hPa | 0 mm | - | 235 W/m² | - |
| 1778242064 | 15.56° C | 84% | 1020.5 hPa | 0 mm | - | 495 W/m² | - |
| 1778241763 | 15° C | 85% | 1020.2 hPa | 0 mm | - | 478 W/m² | - |
| 1778241460 | 15° C | 86% | 1020.4 hPa | 0 mm | - | 376 W/m² | - |
| 1778241158 | 15° C | 86% | 1020.5 hPa | 0 mm | - | 211 W/m² | - |
| 1778240853 | 15° C | 85% | 1020.7 hPa | 0 mm | - | 238 W/m² | - |
| 1778240550 | 14.44° C | 87% | 1020.8 hPa | 0 mm | - | 303 W/m² | - |
| 1778240247 | 14.44° C | 88% | 1020.9 hPa | 0 mm | - | 238 W/m² | - |
| 1778239946 | 14.44° C | 90% | 1020.9 hPa | 0 mm | - | 285 W/m² | - |
| 1778239642 | 14.44° C | 93% | 1020.9 hPa | 0 mm | - | 260 W/m² | - |
| 1778239338 | 14.44° C | 92% | 1021 hPa | 0 mm | - | 244 W/m² | - |
| 1778239035 | 15° C | 91% | 1021.1 hPa | 0 mm | - | 216 W/m² | - |
| 1778238733 | 14.44° C | 90% | 1021 hPa | 0 mm | - | 236 W/m² | - |
| 1778238430 | 14.44° C | 89% | 1021.1 hPa | 0 mm | - | 229 W/m² | - |
* Rain latest hour (hover to see other rain measurements)
** Current wind speed in m/s (hover to see current wind gust speed)